Weather History for PASX - July, 2012

Change the Weather History Date:

Tuesday, July 10, 2012

  Actual Average Record
Temperature  
Mean Temperature 50 °F -  
Max Temperature 57 °F 63 °F 80 °F (1972)
Min Temperature 42 °F 46 °F 39 °F (1953)
Degree Days  
Heating Degree Days 16    
Moisture  
Dew Point 42 °F    
Average Humidity 71    
Maximum Humidity 87    
Minimum Humidity 59    
Precipitation  
Precipitation 0.00 in - - ()
Sea Level Pressure  
Sea Level Pressure 29.83 in    
Wind  
Wind Speed 6 mph (SW)    
Max Wind Speed 15 mph    
Max Gust Speed 17 mph    
Visibility 10 miles    
Events      
Averages and records for this station are not official NWS values.
T = Trace of Precipitation, MM = Missing Value Source: NWS Daily Summary

Daily Weather History Graph

Daily Weather History Graph

Search for Another Location

Airport or City:

Trip Planner

Search our weather history database for the weather conditions in past years. The results will help you decide how hot, cold, wet, or windy it might be!

Date:

Astronomy

Jul. 10, 2012 Rise Set
Actual Time 4:55 AM AKDT 11:22 PM AKDT
Civil Twilight 3:24 AM AKDT 12:52 AM AKDT
Nautical Twilight Sun does not set Sun does not set
Astronomical Twilight Sun does not set Sun does not set
Moon 12:24 AM AKDT (7/10) 3:02 PM AKDT (7/10)
Length of Visible Light 21h 27m
Length of Day
18h 27m
Waning Gibbous, 52% of the Moon is Illuminated
Jul 10
Waning Gibbous
Jul 10
Last Quarter
Jul 18
New
Jul 26
First Quarter
Aug 1
Full

Hourly Weather History & Observations

Time (AKDT) Temp. Windchill Dew Point Humidity Pressure Visibility Wind Dir Wind Speed Gust Speed Precip Events Conditions
12:16 AM 44.6 °F - 41.0 °F 87% 29.82 in 10.0 mi Calm Calm - N/A   Partly Cloudy
12:36 AM 44.6 °F 43.1 °F 39.2 °F 81% 29.82 in 10.0 mi SSW 3.5 mph - N/A   Mostly Cloudy
12:56 AM 44.6 °F 42.2 °F 39.2 °F 81% 29.81 in 10.0 mi SSW 4.6 mph - N/A   Partly Cloudy
1:16 AM 42.8 °F 40.1 °F 39.2 °F 87% 29.81 in 10.0 mi South 4.6 mph - N/A   Scattered Clouds
1:36 AM 42.8 °F 38.6 °F 39.2 °F 87% 29.80 in 10.0 mi SSW 6.9 mph - N/A   Partly Cloudy
1:56 AM 44.6 °F 40.2 °F 39.2 °F 81% 29.79 in 10.0 mi SSW 8.1 mph - N/A   Clear
2:16 AM 44.6 °F 40.7 °F 39.2 °F 81% 29.79 in 10.0 mi SSW 6.9 mph - N/A   Clear
2:36 AM 44.6 °F 40.2 °F 37.4 °F 76% 29.78 in 10.0 mi SSW 8.1 mph - N/A   Clear
2:56 AM 44.6 °F 39.7 °F 37.4 °F 76% 29.78 in 10.0 mi SSW 9.2 mph - N/A   Clear
3:16 AM 44.6 °F 39.7 °F 37.4 °F 76% 29.77 in 10.0 mi SSW 9.2 mph - N/A   Clear
3:36 AM 44.6 °F 39.2 °F 37.4 °F 76% 29.77 in 10.0 mi SSW 10.4 mph - N/A   Clear
3:56 AM 44.6 °F 40.2 °F 37.4 °F 76% 29.76 in 10.0 mi SSW 8.1 mph - N/A   Clear
4:36 AM 44.6 °F 41.4 °F 37.4 °F 76% 29.76 in 10.0 mi SW 5.8 mph - N/A   Clear
4:56 AM 44.6 °F 41.4 °F 37.4 °F 76% 29.76 in 10.0 mi SSW 5.8 mph - N/A   Clear
5:16 AM 44.6 °F 41.4 °F 37.4 °F 76% 29.76 in 10.0 mi SSW 5.8 mph - N/A   Clear
5:36 AM 44.6 °F 40.2 °F 37.4 °F 76% 29.76 in 10.0 mi SW 8.1 mph - N/A   Clear
5:56 AM 44.6 °F 42.2 °F 37.4 °F 76% 29.77 in 10.0 mi South 4.6 mph - N/A   Clear
6:16 AM 44.6 °F 41.4 °F 39.2 °F 81% 29.77 in 10.0 mi South 5.8 mph - N/A   Clear
6:36 AM 44.6 °F 43.1 °F 39.2 °F 81% 29.77 in 10.0 mi South 3.5 mph - N/A   Clear
6:56 AM 44.6 °F 41.4 °F 39.2 °F 81% 29.77 in 10.0 mi SSW 5.8 mph - N/A   Clear
7:16 AM 46.4 °F 43.5 °F 39.2 °F 76% 29.77 in 10.0 mi South 5.8 mph - N/A   Clear
7:36 AM 46.4 °F 42.9 °F 39.2 °F 76% 29.77 in 10.0 mi SSW 6.9 mph - N/A   Clear
7:56 AM 48.2 °F - 41.0 °F 76% 29.77 in 10.0 mi SSW 5.8 mph - N/A   Scattered Clouds
8:16 AM 48.2 °F - 39.2 °F 71% 29.78 in 10.0 mi SSW 5.8 mph - N/A   Mostly Cloudy
8:36 AM 48.2 °F - 41.0 °F 76% 29.78 in 10.0 mi South 5.8 mph - N/A   Overcast
8:56 AM 48.2 °F - 41.0 °F 76% 29.78 in 10.0 mi South 6.9 mph - N/A   Overcast
9:16 AM 50.0 °F - 42.8 °F 76% 29.79 in 10.0 mi South 5.8 mph - N/A   Mostly Cloudy
9:36 AM 51.8 °F - 41.0 °F 67% 29.79 in 10.0 mi SSW 3.5 mph - N/A   Mostly Cloudy
9:56 AM 51.8 °F - 41.0 °F 67% 29.79 in 10.0 mi SSW 5.8 mph - N/A   Overcast
10:16 AM 51.8 °F - 41.0 °F 67% 29.80 in 10.0 mi SW 5.8 mph - N/A   Partly Cloudy
10:36 AM 53.6 °F - 41.0 °F 62% 29.80 in 10.0 mi South 8.1 mph - N/A   Mostly Cloudy
10:56 AM 53.6 °F - 41.0 °F 62% 29.80 in 10.0 mi SW 4.6 mph - N/A   Overcast
11:16 AM 53.6 °F - 42.8 °F 67% 29.80 in 10.0 mi SSW 6.9 mph - N/A   Overcast
11:36 AM 55.4 °F - 42.8 °F 63% 29.80 in 10.0 mi Calm Calm - N/A   Mostly Cloudy
11:56 AM 55.4 °F - 42.8 °F 63% 29.80 in 10.0 mi WSW 9.2 mph - N/A   Scattered Clouds
12:16 PM 55.4 °F - 44.6 °F 67% 29.81 in 10.0 mi Calm Calm - N/A   Scattered Clouds
12:36 PM 55.4 °F - 44.6 °F 67% 29.82 in 10.0 mi WNW 11.5 mph 17.3 mph N/A   Partly Cloudy
12:56 PM 55.4 °F - 42.8 °F 63% 29.82 in 10.0 mi WNW 11.5 mph - N/A   Scattered Clouds
1:16 PM 57.2 °F - 44.6 °F 63% 29.83 in 10.0 mi West 12.7 mph 17.3 mph N/A   Mostly Cloudy
1:36 PM 57.2 °F - 42.8 °F 59% 29.83 in 10.0 mi West 11.5 mph 17.3 mph N/A   Mostly Cloudy
1:56 PM 57.2 °F - 42.8 °F 59% 29.84 in 10.0 mi West 12.7 mph - N/A   Partly Cloudy
2:16 PM 57.2 °F - 42.8 °F 59% 29.84 in 10.0 mi West 12.7 mph 17.3 mph N/A   Clear
2:36 PM 57.2 °F - 42.8 °F 59% 29.84 in 10.0 mi West 15.0 mph - N/A   Clear
2:56 PM 57.2 °F - 42.8 °F 59% 29.85 in 10.0 mi WNW 12.7 mph - N/A   Clear
3:16 PM 57.2 °F - 42.8 °F 59% 29.85 in 10.0 mi WNW 11.5 mph - N/A   Clear
3:36 PM 57.2 °F - 42.8 °F 59% 29.85 in 10.0 mi WNW 10.4 mph - N/A   Clear
3:56 PM 57.2 °F - 42.8 °F 59% 29.86 in 10.0 mi WNW 13.8 mph - N/A   Clear
4:16 PM 57.2 °F - 42.8 °F 59% 29.87 in 10.0 mi West 15.0 mph - N/A   Clear
4:36 PM 57.2 °F - 42.8 °F 59% 29.87 in 10.0 mi West 11.5 mph - N/A   Scattered Clouds
4:56 PM 55.4 °F - 42.8 °F 63% 29.89 in 10.0 mi West 13.8 mph - N/A   Mostly Cloudy
5:16 PM 55.4 °F - 42.8 °F 63% 29.89 in 10.0 mi West 10.4 mph - N/A   Mostly Cloudy
5:36 PM 55.4 °F - 42.8 °F 63% 29.89 in 10.0 mi West 11.5 mph - N/A   Overcast
5:56 PM 53.6 °F - 42.8 °F 67% 29.89 in 10.0 mi West 8.1 mph - N/A   Overcast
6:16 PM 53.6 °F - 42.8 °F 67% 29.90 in 10.0 mi NW 5.8 mph - N/A   Overcast
6:36 PM 53.6 °F - 42.8 °F 67% 29.90 in 10.0 mi NW 3.5 mph - N/A   Overcast
6:56 PM 55.4 °F - 42.8 °F 63% 29.90 in 10.0 mi NW 4.6 mph - N/A   Overcast
7:16 PM 55.4 °F - 42.8 °F 63% 29.90 in 10.0 mi NNW 5.8 mph - N/A   Overcast
7:36 PM 55.4 °F - 42.8 °F 63% 29.90 in 10.0 mi Calm Calm - N/A   Mostly Cloudy
7:56 PM 55.4 °F - 42.8 °F 63% 29.90 in 10.0 mi North 3.5 mph - N/A   Mostly Cloudy
8:16 PM 55.4 °F - 44.6 °F 67% 29.90 in 10.0 mi NNE 4.6 mph - N/A   Scattered Clouds
8:36 PM 55.4 °F - 44.6 °F 67% 29.90 in 10.0 mi North 5.8 mph - N/A   Mostly Cloudy
8:56 PM 55.4 °F - 42.8 °F 63% 29.90 in 10.0 mi North 4.6 mph - N/A   Overcast
9:16 PM 55.4 °F - 44.6 °F 67% 29.91 in 10.0 mi North 4.6 mph - N/A   Overcast
9:36 PM 53.6 °F - 46.4 °F 77% 29.92 in 8.0 mi NW 3.5 mph - N/A   Overcast
9:56 PM 53.6 °F - 46.4 °F 77% 29.92 in 10.0 mi West 5.8 mph - N/A   Overcast
10:16 PM 51.8 °F - 46.4 °F 82% 29.92 in 10.0 mi Calm Calm - N/A   Overcast
10:36 PM 51.8 °F - 46.4 °F 82% 29.92 in 10.0 mi East 3.5 mph - N/A   Overcast
10:56 PM 51.8 °F - 44.6 °F 76% 29.93 in 10.0 mi ESE 3.5 mph - N/A   Overcast
11:16 PM 50.0 °F - 44.6 °F 82% 29.93 in 10.0 mi SE 3.5 mph - N/A   Mostly Cloudy
11:36 PM 50.0 °F - 41.0 °F 71% 29.94 in 10.0 mi ESE 4.6 mph - N/A   Mostly Cloudy
11:56 PM 48.2 °F - 42.8 °F 82% 29.94 in 10.0 mi Calm Calm - N/A   Mostly Cloudy